Tracking 23757 objects as of 25-Oct-2021
HD Live streaming from Space Station
objects crossing your sky now

BREEZE-M R/B

Track BREEZE-M R/B now!


NORAD ID: 39614
Int'l Code: 2014-010C
Perigee: 35,519.9 km
Apogee: 41,980.4 km
Inclination: 6.5 °
Period: 1,589.8 minutes
Semi major axis: 45121 km
RCS: Unknown
Launch date: March 15, 2014
Source: Commonwealth of Independent States (former USSR) (CIS)
Launch site: TYURATAM MISSILE AND SPACE COMPLEX (TTMTR)

Note: This is a ROCKET BODY
aabbcc
Your satellite tracking list
Your tracking list is empty




NASA's NSSDC Master Catalog

Two Line Element Set (TLE):
1 39614U 14010C   21297.30478269 -.00000151  00000-0  00000-0 0  9997
2 39614   6.4531  72.2094 0715916  15.4800 346.5532  0.90580084 25138
Source of the keplerian elements: AFSPC